Location: Fours
(44.3167°N, 6.7000°E)
Time: 18:24:11
(UTC+00:00)

YAOGAN 1 - Pass Details

Date: 30 November 2020
Orbit: 618 x 620 km, 97.9° (Epoch: 23 January)

Event Time Altitude Azimuth Distance (km) Brightness Sun altitude
Rises 18:20:56 0° 171° (S) 2,882 6.0 -25.3°
Enters shadow 18:21:32 - 171° (S) 2,629 5.8 -25.4°
Exits shadow 18:29:00 38° 332° (NNW) 957 3.6 -26.8°
Drops below altitude 10° 18:31:45 10° 343° (NNW) 1,998 5.3 -27.3°
Sets 18:33:58 0° 345° (NNW) 2,909 6.1 -27.7°
